Ash Shahaniyah, Qatar

3:17 PM +03 on October 18, 2017 (GMT +0300)
Ash Shahaniyah

Weather History for WKQIR - April, 2013

Change the Weather History Date:

Tuesday, April 9, 2013

  Actual Average Record
Temperature  
Mean Temperature 79 °F -  
Max Temperature 94 °F - - ()
Min Temperature 64 °F - - ()
Cooling Degree Days 14    
Growing Degree Days 29 (Base 50)    
Moisture  
Dew Point 56 °F    
Average Humidity 53    
Maximum Humidity 85    
Minimum Humidity 18    
Precipitation  
Precipitation 0.00 in - - ()
Sea Level Pressure  
Sea Level Pressure 29.80 in    
Wind  
Wind Speed 4 mph ()    
Max Wind Speed 16 mph    
Max Gust Speed -    
Visibility 6.2 miles    
Events      
T = Trace of Precipitation, MM = Missing Value Source: Averaged Metar Reports

Daily Weather History Graph

Daily Weather History Graph

Search for Another Location

Airport or City:

Trip Planner

Search our weather history database for the weather conditions in past years. The results will help you decide how hot, cold, wet, or windy it might be!

Date:

Astronomy

Apr. 09, 2013 Rise Set
Actual Time 5:18 AM +03 5:55 PM +03
Civil Twilight 4:55 AM +03 6:18 PM +03
Nautical Twilight 4:27 AM +03 6:45 PM +03
Astronomical Twilight 4:00 AM +03 7:13 PM +03
Moon 4:23 AM +03 (4/9) 5:08 PM +03 (4/9)
Length of Visible Light 13h 23m
Length of Day
12h 36m
Waning Crescent, 1% of the Moon is Illuminated
Apr 9
Waning Crescent
Apr 10
New
Apr 18
First Quarter
Apr 25
Full
May 2
Last Quarter

Hourly Weather History & Observations

Time (+03) Temp. Heat Index Dew Point Humidity Pressure Visibility Wind Dir Wind Speed Gust Speed Precip Events Conditions
12:55 AM 69.1 °F - 63.5 °F 82% 29.77 in 6.2 mi Calm Calm - N/A   Clear
1:55 AM 69.3 °F - 63.0 °F 80% 29.77 in 6.2 mi East 3.5 mph - N/A   Clear
2:55 AM 68.5 °F - 63.0 °F 82% 29.78 in 6.2 mi East 3.5 mph - N/A   Clear
3:55 AM 64.6 °F - 59.7 °F 84% 29.79 in 6.2 mi SW 3.5 mph - N/A   Clear
4:55 AM 64.8 °F - 60.1 °F 85% 29.80 in 6.2 mi Calm Calm - N/A   Clear
5:55 AM 64.8 °F - 60.3 °F 85% 29.82 in 5.6 mi Calm Calm - N/A   Haze
6:55 AM 70.5 °F - 63.7 °F 79% 29.85 in 6.2 mi South 3.5 mph - N/A   Clear
7:55 AM 75.4 °F - 66.6 °F 74% 29.86 in 6.2 mi SSW 6.9 mph - N/A   Partly Cloudy
8:55 AM 79.3 °F - 62.1 °F 55% 29.87 in 6.2 mi South 8.1 mph - N/A   Scattered Clouds
9:55 AM 84.4 °F 83.2 °F 55.4 °F 37% 29.86 in 6.2 mi SSW 6.9 mph - N/A   Mostly Cloudy
10:55 AM 88.0 °F - 50.0 °F 27% 29.86 in 6.2 mi SSW 6.9 mph - N/A   Scattered Clouds
11:55 AM 89.8 °F - 46.4 °F 22% 29.83 in 6.2 mi South 5.8 mph - N/A   Mostly Cloudy
12:55 PM 92.7 °F - 45.1 °F 19% 29.81 in 6.2 mi Calm Calm - N/A   Scattered Clouds
1:55 PM 92.5 °F - 45.1 °F 19% 29.78 in 6.2 mi South 4.6 mph - N/A   Partly Cloudy
2:55 PM 94.3 °F - 44.6 °F 18% 29.76 in 6.2 mi South 3.5 mph - N/A   Clear
3:55 PM 92.5 °F - 45.1 °F 19% 29.75 in 6.2 mi SE 9.2 mph - N/A   Clear
4:55 PM 89.6 °F - 45.7 °F 22% 29.75 in 6.2 mi East 16.1 mph - N/A   Clear
6:55 PM 81.1 °F 80.7 °F 54.0 °F 39% 29.78 in 6.2 mi East 10.4 mph - N/A   Clear
7:55 PM 78.4 °F - 57.9 °F 49% 29.80 in 6.2 mi North 10.4 mph - N/A   Clear
8:55 PM 77.2 °F - 61.2 °F 58% 29.82 in 6.2 mi East 9.2 mph - N/A   Clear
9:55 PM 75.9 °F - 61.2 °F 60% 29.81 in 6.2 mi East 10.4 mph - N/A   Clear
10:55 PM 75.7 °F - 60.4 °F 59% 29.81 in 6.2 mi East 8.1 mph - N/A   Clear
11:55 PM 72.9 °F - 62.6 °F 70% 29.78 in 6.2 mi SE 6.9 mph - N/A   Clear